| time (UTC) | temp F | wind direction | speed MPH | gust MPH | rain 1hr in | rain 24hr in | rain mn in | humidity % | barometer mb |
| 20260505121536 | 75 | 207 | 5.0 | 9.0 | 0.00 | 0.00 | 0.00 | 41 | 1005.4 |
| 20260505120056 | 76 | 86 | 2.0 | 8.0 | 0.00 | 0.00 | 0.00 | 40 | 1005.5 |
| 20260505114530 | 77 | 115 | 3.0 | 12.0 | 0.00 | 0.00 | 0.00 | 41 | 1005.6 |
| 20260505113027 | 77 | 116 | 3.0 | 10.0 | 0.00 | 0.00 | 0.00 | 40 | 1005.8 |
| 20260505111524 | 77 | 49 | 3.0 | 6.0 | 0.00 | 0.00 | 0.00 | 40 | 1005.9 |
| 20260505101521 | 76 | 110 | 2.0 | 4.0 | 0.00 | 0.00 | 0.00 | 39 | 1006.5 |
| 20260505100021 | 75 | 113 | 1.0 | 7.0 | 0.00 | 0.00 | 0.00 | 41 | 1006.7 |
| 20260505094509 | 74 | 40 | 1.0 | 4.0 | 0.00 | 0.00 | 0.00 | 42 | 1006.9 |
| 20260505093008 | 73 | 103 | 3.0 | 7.0 | 0.00 | 0.00 | 0.00 | 43 | 1006.9 |
| 20260505091513 | 72 | 85 | 4.0 | 7.0 | 0.00 | 0.00 | 0.00 | 46 | 1007.0 |
| 20260505090003 | 71 | 79 | 1.0 | 7.0 | 0.00 | 0.00 | 0.00 | 46 | 1007.2 |
| 20260505084557 | 69 | 200 | 1.0 | 6.0 | 0.00 | 0.00 | 0.00 | 48 | 1007.2 |
| 20260505083056 | 69 | 120 | 1.0 | 4.0 | 0.00 | 0.00 | 0.00 | 48 | 1007.3 |
| 20260505081553 | 68 | 136 | 2.0 | 5.0 | 0.00 | 0.00 | 0.00 | 49 | 1007.6 |
| 20260505080052 | 67 | 93 | 1.0 | 5.0 | 0.00 | 0.00 | 0.00 | 50 | 1007.7 |
| 20260505074554 | 66 | 63 | 2.0 | 6.0 | 0.00 | 0.00 | 0.00 | 50 | 1007.9 |
| 20260505073101 | 65 | 84 | 3.0 | 6.0 | 0.00 | 0.00 | 0.00 | 50 | 1008.1 |
| 20260505071546 | 65 | 135 | 0.0 | 4.0 | 0.00 | 0.00 | 0.00 | 51 | 1008.2 |
| 20260505070040 | 63 | 264 | 1.0 | 6.0 | 0.00 | 0.00 | 0.00 | 52 | 1008.3 |
| 20260505064542 | 62 | 203 | 1.0 | 6.0 | 0.00 | 0.00 | 0.00 | 53 | 1008.4 |
| 20260505063037 | 62 | 13 | 1.0 | 6.0 | 0.00 | 0.00 | 0.00 | 52 | 1008.5 |
| 20260505061547 | 61 | 149 | 2.0 | 6.0 | 0.00 | 0.00 | 0.00 | 53 | 1008.6 |
| 20260505060036 | 61 | 164 | 2.0 | 4.0 | 0.00 | 0.00 | 0.00 | 53 | 1008.6 |
| 20260505054557 | 60 | 170 | 0.0 | 3.0 | 0.00 | 0.00 | 0.00 | 57 | 1008.8 |
| 20260505053035 | 58 | 214 | 0.0 | 1.0 | 0.00 | 0.00 | 0.00 | 59 | 1008.8 |
| 20260505051534 | 56 | 203 | 0.0 | 2.0 | 0.00 | 0.00 | 0.00 | 62 | 1008.9 |
| 20260505041529 | 51 | 195 | 0.0 | 2.0 | 0.00 | 0.00 | 0.00 | 75 | 1008.9 |
| 20260505040029 | 51 | 262 | 0.0 | 1.0 | 0.00 | 0.00 | 0.00 | 74 | 1008.7 |
| 20260505034528 | 52 | 199 | 0.0 | 2.0 | 0.00 | 0.00 | 0.00 | 73 | 1008.6 |
| 20260505033027 | 51 | 258 | 0.0 | 2.0 | 0.00 | 0.00 | 0.00 | 74 | 1008.6 |
| 20260505031539 | 52 | 44 | 0.0 | 1.0 | 0.00 | 0.00 | 0.00 | 74 | 1008.7 |
| 20260505030022 | 53 | 39 | 0.0 | 1.0 | 0.00 | 0.00 | 0.00 | 71 | 1008.9 |
| 20260505024532 | 52 | 46 | 1.0 | 2.0 | 0.00 | 0.00 | 0.00 | 71 | 1009.0 |
| 20260505023017 | 53 | 214 | 0.0 | 0.0 | 0.00 | 0.00 | 0.00 | 72 | 1009.1 |
| 20260505021518 | 54 | 214 | 0.0 | 1.0 | 0.00 | 0.00 | 0.00 | 71 | 1009.3 |
| 20260505020025 | 54 | 304 | 0.0 | 1.0 | 0.00 | 0.00 | 0.00 | 67 | 1009.4 |
| 20260505014512 | 54 | 38 | 0.0 | 2.0 | 0.00 | 0.00 | 0.00 | 69 | 1009.5 |
| 20260505013009 | 54 | 23 | 0.0 | 2.0 | 0.00 | 0.00 | 0.00 | 70 | 1009.7 |
| 20260505011508 | 55 | 232 | 0.0 | 1.0 | 0.00 | 0.00 | 0.00 | 69 | 1009.9 |
| 20260505010005 | 55 | 231 | 0.0 | 2.0 | 0.00 | 0.00 | 0.00 | 67 | 1009.8 |
| 20260505004502 | 56 | 223 | 0.0 | 2.0 | 0.00 | 0.00 | 0.00 | 65 | 1009.9 |
| 20260505003058 | 56 | 205 | 0.0 | 1.0 | 0.00 | 0.00 | 0.00 | 65 | 1010.1 |
| 20260505001559 | 57 | 257 | 0.0 | 1.0 | 0.00 | 0.00 | 0.00 | 63 | 1010.5 |
| 20260505000113 | 58 | 254 | 0.0 | 1.0 | 0.00 | 0.00 | 0.00 | 61 | 1010.6 |
| 20260504234550 | 59 | 252 | 0.0 | 1.0 | 0.00 | 0.00 | 0.00 | 59 | 1010.9 |
| 20260504233048 | 60 | 251 | 0.0 | 1.0 | 0.00 | 0.00 | 0.00 | 57 | 1010.9 |
| 20260504231546 | 61 | 54 | 0.0 | 2.0 | 0.00 | 0.00 | 0.00 | 55 | 1010.9 |
| 20260504230100 | 62 | 76 | 0.0 | 2.0 | 0.00 | 0.00 | 0.00 | 51 | 1011.1 |
| 20260504224541 | 61 | 258 | 0.0 | 1.0 | 0.00 | 0.00 | 0.00 | 56 | 1011.1 |
| 20260504223039 | 63 | 257 | 0.0 | 1.0 | 0.00 | 0.00 | 0.00 | 55 | 1011.1 |
| 20260504221549 | 63 | 227 | 0.0 | 3.0 | 0.00 | 0.00 | 0.00 | 47 | 1011.3 |
| 20260504220034 | 62 | 229 | 0.0 | 1.0 | 0.00 | 0.00 | 0.00 | 58 | 1011.2 |
| 20260504214535 | 63 | 229 | 0.0 | 1.0 | 0.00 | 0.00 | 0.00 | 55 | 1011.2 |
| 20260504213034 | 63 | 257 | 0.0 | 1.0 | 0.00 | 0.00 | 0.00 | 49 | 1011.1 |
| 20260504211530 | 63 | 283 | 0.0 | 2.0 | 0.00 | 0.00 | 0.00 | 48 | 1011.1 |
| 20260504210030 | 62 | 259 | 0.0 | 1.0 | 0.00 | 0.00 | 0.00 | 56 | 1011.3 |
| 20260504204529 | 62 | 269 | 0.0 | 1.0 | 0.00 | 0.00 | 0.00 | 56 | 1011.3 |
| 20260504203030 | 62 | 269 | 0.0 | 2.0 | 0.00 | 0.00 | 0.00 | 57 | 1011.3 |
| 20260504201529 | 63 | 311 | 0.0 | 1.0 | 0.00 | 0.00 | 0.00 | 55 | 1011.2 |
| 20260504200028 | 63 | 22 | 0.0 | 1.0 | 0.00 | 0.00 | 0.00 | 57 | 1011.3 |
| 20260504194528 | 64 | 320 | 0.0 | 1.0 | 0.00 | 0.00 | 0.00 | 56 | 1011.5 |
| 20260504193028 | 65 | 93 | 0.0 | 1.0 | 0.00 | 0.00 | 0.00 | 55 | 1011.6 |
| 20260504191526 | 66 | 94 | 0.0 | 1.0 | 0.00 | 0.00 | 0.00 | 50 | 1011.5 |
| 20260504190026 | 67 | 108 | 0.0 | 1.0 | 0.00 | 0.00 | 0.00 | 50 | 1011.4 |
| 20260504184525 | 68 | 160 | 0.0 | 3.0 | 0.00 | 0.00 | 0.00 | 50 | 1011.2 |
| 20260504183025 | 69 | 113 | 0.0 | 3.0 | 0.00 | 0.00 | 0.00 | 50 | 1011.0 |
| 20260504181528 | 69 | 112 | 0.0 | 3.0 | 0.00 | 0.00 | 0.00 | 51 | 1011.1 |
| 20260504180023 | 70 | 96 | 1.0 | 3.0 | 0.00 | 0.00 | 0.00 | 51 | 1011.1 |
| 20260504174523 | 71 | 56 | 1.0 | 3.0 | 0.00 | 0.00 | 0.00 | 47 | 1011.1 |
| 20260504173022 | 72 | 102 | 1.0 | 4.0 | 0.00 | 0.00 | 0.00 | 44 | 1011.1 |
| 20260504171522 | 73 | 60 | 2.0 | 4.0 | 0.00 | 0.00 | 0.00 | 42 | 1011.2 |